Time,TemperatureF,DewpointF,PressureIn,WindDirection,WindDirectionDegrees,WindSpeedMPH,WindSpeedGustMPH,Humidity,HourlyPrecipIn,Conditions,Clouds,dailyrainin,SoftwareType,DateUTC
2013-09-13 07:35:00,62.6,59.6,29.67,WNW,293,0.9,0.9,90,0.00,,,0.00,WUHU216HW,2013-09-13 11:35:00,
2013-09-13 07:36:00,62.6,59.6,29.67,WNW,293,0.4,0.9,90,0.00,,,0.00,WUHU216HW,2013-09-13 11:36:00,
2013-09-13 07:38:00,62.6,59.6,29.66,WSW,248,0.4,0.9,90,0.00,,,0.00,WUHU216HW,2013-09-13 11:38:00,
2013-09-13 07:43:00,62.6,59.9,29.66,WNW,293,0.2,1.1,91,0.00,,,0.00,WUHU216HW,2013-09-13 11:43:00,
2013-09-13 07:48:00,62.6,59.9,29.67,West,270,1.3,1.8,91,0.00,,,0.00,WUHU216HW,2013-09-13 11:48:00,
2013-09-13 07:53:00,62.6,59.9,29.67,NW,315,1.8,1.8,91,0.00,,,0.00,WUHU216HW,2013-09-13 11:53:00,
2013-09-13 07:58:00,62.4,59.4,29.66,WSW,248,1.8,4.0,90,0.00,,,0.00,WUHU216HW,2013-09-13 11:58:00,
2013-09-13 08:03:00,61.5,58.5,29.67,West,270,0.0,4.0,90,0.00,,,0.00,WUHU216HW,2013-09-13 12:03:00,
2013-09-13 08:08:00,61.4,58.4,29.67,NW,315,0.9,1.8,90,0.00,,,0.00,WUHU216HW,2013-09-13 12:08:00,
2013-09-13 08:13:00,61.0,58.3,29.66,North,0,0.2,2.5,91,0.00,,,0.00,WUHU216HW,2013-09-13 12:13:00,
2013-09-13 08:18:00,60.8,57.8,29.66,West,270,2.0,2.5,90,0.00,,,0.00,WUHU216HW,2013-09-13 12:18:00,
2013-09-13 08:23:00,61.0,58.0,29.66,WNW,293,2.5,2.5,90,0.00,,,0.00,WUHU216HW,2013-09-13 12:23:00,
2013-09-13 08:28:00,61.0,58.0,29.66,West,270,0.4,2.5,90,0.00,,,0.00,WUHU216HW,2013-09-13 12:28:00,
2013-09-13 08:33:00,61.0,58.0,29.67,NNW,338,1.8,2.5,90,0.00,,,0.00,WUHU216HW,2013-09-13 12:33:00,
2013-09-13 08:39:00,61.2,58.2,29.67,NW,315,1.8,5.8,90,0.00,,,0.00,WUHU216HW,2013-09-13 12:39:00,
2013-09-13 08:44:00,61.2,58.2,29.67,North,0,1.1,5.8,90,0.00,,,0.00,WUHU216HW,2013-09-13 12:44:00,
2013-09-13 08:49:00,61.0,58.0,29.67,NNW,338,0.7,2.9,90,0.00,,,0.00,WUHU216HW,2013-09-13 12:49:00,
2013-09-13 08:54:00,61.0,58.0,29.67,NNW,338,0.4,2.9,90,0.00,,,0.00,WUHU216HW,2013-09-13 12:54:00,
2013-09-13 08:59:00,61.2,58.2,29.67,WSW,248,1.6,2.5,90,0.00,,,0.00,WUHU216HW,2013-09-13 12:59:00,
2013-09-13 09:04:00,61.5,58.2,29.67,NW,315,0.2,3.8,89,0.00,,,0.00,WUHU216HW,2013-09-13 13:04:00,
2013-09-13 09:09:00,61.9,58.6,29.67,NNW,338,1.1,3.8,89,0.00,,,0.00,WUHU216HW,2013-09-13 13:09:00,
2013-09-13 09:14:00,62.4,59.1,29.67,NNW,338,1.1,2.9,89,0.00,,,0.00,WUHU216HW,2013-09-13 13:14:00,
2013-09-13 09:19:00,62.4,58.8,29.67,WNW,293,2.0,2.9,88,0.00,,,0.00,WUHU216HW,2013-09-13 13:19:00,
2013-09-13 09:24:00,62.8,58.9,29.66,West,270,1.1,2.2,87,0.00,,,0.00,WUHU216HW,2013-09-13 13:24:00,
2013-09-13 09:29:00,62.6,58.7,29.66,SSW,203,1.3,3.4,87,0.00,,,0.00,WUHU216HW,2013-09-13 13:29:00,
2013-09-13 09:35:00,62.4,58.5,29.67,WSW,248,1.8,3.8,87,0.00,,,0.00,WUHU216HW,2013-09-13 13:35:00,
2013-09-13 09:40:00,62.4,58.5,29.67,WNW,293,3.1,3.8,87,0.00,,,0.00,WUHU216HW,2013-09-13 13:40:00,
2013-09-13 09:45:00,62.4,58.2,29.67,WSW,248,0.7,7.2,86,0.00,,,0.00,WUHU216HW,2013-09-13 13:45:00,
2013-09-13 09:50:00,62.6,58.4,29.68,WNW,293,1.1,7.2,86,0.00,,,0.00,WUHU216HW,2013-09-13 13:50:00,
2013-09-13 09:55:00,62.8,58.6,29.68,NNW,338,0.7,4.7,86,0.00,,,0.00,WUHU216HW,2013-09-13 13:55:00,
2013-09-13 10:00:00,63.2,58.9,29.68,WNW,293,0.2,4.7,86,0.00,,,0.00,WUHU216HW,2013-09-13 14:00:00,
2013-09-13 10:05:00,63.3,59.0,29.68,West,270,3.6,4.3,86,0.00,,,0.00,WUHU216HW,2013-09-13 14:05:00,
2013-09-13 10:10:00,63.5,59.2,29.68,WNW,293,2.2,4.3,86,0.00,,,0.00,WUHU216HW,2013-09-13 14:10:00,
2013-09-13 10:15:00,63.5,59.2,29.68,WSW,248,0.7,4.9,86,0.00,,,0.00,WUHU216HW,2013-09-13 14:15:00,
2013-09-13 10:20:00,63.7,59.1,29.68,SE,135,1.8,4.9,85,0.00,,,0.00,WUHU216HW,2013-09-13 14:20:00,
2013-09-13 10:25:00,63.7,59.1,29.68,WSW,248,1.8,3.8,85,0.00,,,0.00,WUHU216HW,2013-09-13 14:25:00,
2013-09-13 10:30:00,63.9,59.0,29.67,NNW,338,1.1,2.7,84,0.00,,,0.00,WUHU216HW,2013-09-13 14:30:00,
2013-09-13 10:36:00,64.1,59.2,29.67,WNW,293,1.3,2.9,84,0.00,,,0.00,WUHU216HW,2013-09-13 14:36:00,
2013-09-13 10:41:00,64.2,59.3,29.67,WNW,293,1.1,2.9,84,0.00,,,0.00,WUHU216HW,2013-09-13 14:41:00,
2013-09-13 10:46:00,64.4,59.5,29.67,NW,315,2.9,4.0,84,0.00,,,0.00,WUHU216HW,2013-09-13 14:46:00,
2013-09-13 10:51:00,64.6,59.4,29.67,NNE,23,3.4,4.0,83,0.00,,,0.00,WUHU216HW,2013-09-13 14:51:00,
2013-09-13 10:56:00,64.8,59.6,29.68,East,90,4.5,4.5,83,0.00,,,0.00,WUHU216HW,2013-09-13 14:56:00,
2013-09-13 11:01:00,65.0,59.4,29.68,NNW,338,5.4,5.4,82,0.00,,,0.00,WUHU216HW,2013-09-13 15:01:00,
2013-09-13 11:06:00,65.1,58.8,29.67,WSW,248,3.8,6.9,80,0.00,,,0.00,WUHU216HW,2013-09-13 15:06:00,
2013-09-13 11:11:00,65.3,59.0,29.68,WNW,293,4.0,6.9,80,0.00,,,0.00,WUHU216HW,2013-09-13 15:11:00,
2013-09-13 11:16:00,65.5,58.9,29.68,West,270,3.1,7.8,79,0.00,,,0.00,WUHU216HW,2013-09-13 15:16:00,
2013-09-13 11:21:00,65.5,58.9,29.68,WNW,293,2.2,7.8,79,0.00,,,0.00,WUHU216HW,2013-09-13 15:21:00,
2013-09-13 11:26:00,65.5,58.9,29.68,West,270,6.3,6.5,79,0.00,,,0.00,WUHU216HW,2013-09-13 15:26:00,
2013-09-13 11:32:00,65.5,58.9,29.68,WNW,293,7.4,7.4,79,0.00,,,0.00,WUHU216HW,2013-09-13 15:32:00,
2013-09-13 11:37:00,65.3,58.7,29.68,SE,135,3.8,7.4,79,0.00,,,0.00,WUHU216HW,2013-09-13 15:37:00,
2013-09-13 11:42:00,65.5,58.5,29.68,SW,225,10.5,10.5,78,0.00,,,0.00,WUHU216HW,2013-09-13 15:42:00,
2013-09-13 11:47:00,65.5,58.5,29.68,WSW,248,4.0,10.5,78,0.00,,,0.00,WUHU216HW,2013-09-13 15:47:00,
2013-09-13 11:52:00,65.5,58.5,29.68,West,270,4.3,6.3,78,0.00,,,0.00,WUHU216HW,2013-09-13 15:52:00,
2013-09-13 11:57:00,65.7,58.4,29.68,WNW,293,1.8,5.8,77,0.00,,,0.00,WUHU216HW,2013-09-13 15:57:00,
2013-09-13 12:02:00,66.0,58.7,29.68,NNW,338,1.1,5.8,77,0.00,,,0.00,WUHU216HW,2013-09-13 16:02:00,
2013-09-13 12:07:00,66.0,58.3,29.68,NNW,338,3.8,4.7,76,0.00,,,0.00,WUHU216HW,2013-09-13 16:07:00,
2013-09-13 12:12:00,66.0,58.3,29.68,NW,315,1.1,4.9,76,0.00,,,0.00,WUHU216HW,2013-09-13 16:12:00,
2013-09-13 12:17:00,66.0,58.3,29.68,NW,315,1.1,4.9,76,0.00,,,0.00,WUHU216HW,2013-09-13 16:17:00,
2013-09-13 12:22:00,66.4,58.4,29.68,WNW,293,0.2,4.3,75,0.00,,,0.00,WUHU216HW,2013-09-13 16:22:00,
2013-09-13 12:27:00,66.6,58.2,29.68,NNW,338,3.4,5.4,74,0.00,,,0.00,WUHU216HW,2013-09-13 16:27:00,
2013-09-13 12:33:00,66.8,58.4,29.68,North,0,3.6,6.9,74,0.00,,,0.00,WUHU216HW,2013-09-13 16:33:00,
2013-09-13 12:38:00,67.3,58.9,29.68,North,0,3.4,6.9,74,0.00,,,0.00,WUHU216HW,2013-09-13 16:38:00,
2013-09-13 12:43:00,67.8,59.3,29.67,WNW,293,1.1,4.7,74,0.00,,,0.00,WUHU216HW,2013-09-13 16:43:00,
2013-09-13 12:48:00,68.2,59.4,29.68,WSW,248,4.9,4.9,73,0.00,,,0.00,WUHU216HW,2013-09-13 16:48:00,
2013-09-13 12:53:00,68.0,58.0,29.68,West,270,5.4,9.8,70,0.00,,,0.00,WUHU216HW,2013-09-13 16:53:00,
2013-09-13 12:58:00,67.8,58.2,29.68,SSE,158,1.8,9.8,71,0.00,,,0.00,WUHU216HW,2013-09-13 16:58:00,
2013-09-13 13:03:00,68.0,58.4,29.67,WNW,293,2.9,5.4,71,0.00,,,0.00,WUHU216HW,2013-09-13 17:03:00,
2013-09-13 13:08:00,68.0,58.0,29.67,WNW,293,4.0,7.4,70,0.00,,,0.00,WUHU216HW,2013-09-13 17:08:00,
2013-09-13 13:13:00,67.8,57.8,29.67,WNW,293,0.9,7.4,70,0.00,,,0.00,WUHU216HW,2013-09-13 17:13:00,
2013-09-13 13:18:00,67.8,57.8,29.66,WSW,248,4.0,6.5,70,0.00,,,0.00,WUHU216HW,2013-09-13 17:18:00,
2013-09-13 13:23:00,67.8,57.8,29.66,WNW,293,3.6,6.9,70,0.00,,,0.00,WUHU216HW,2013-09-13 17:23:00,
2013-09-13 13:28:00,67.8,57.4,29.66,SW,225,2.9,6.9,69,0.00,,,0.00,WUHU216HW,2013-09-13 17:28:00,
2013-09-13 13:34:00,67.8,57.4,29.66,WNW,293,5.1,7.6,69,0.00,,,0.00,WUHU216HW,2013-09-13 17:34:00,
2013-09-13 13:39:00,68.0,58.0,29.66,SE,135,3.4,7.6,70,0.00,,,0.00,WUHU216HW,2013-09-13 17:39:00,
2013-09-13 13:44:00,68.6,58.6,29.66,SW,225,6.3,6.3,70,0.00,,,0.00,WUHU216HW,2013-09-13 17:44:00,
2013-09-13 13:49:00,68.7,57.9,29.66,SW,225,6.3,6.9,68,0.00,,,0.00,WUHU216HW,2013-09-13 17:49:00,
2013-09-13 13:54:00,68.4,57.6,29.67,West,270,6.3,7.8,68,0.00,,,0.00,WUHU216HW,2013-09-13 17:54:00,
2013-09-13 13:59:00,68.0,57.2,29.67,South,180,7.2,7.8,68,0.00,,,0.00,WUHU216HW,2013-09-13 17:59:00,
2013-09-13 14:04:00,67.8,57.4,29.67,West,270,3.1,7.2,69,0.00,,,0.00,WUHU216HW,2013-09-13 18:04:00,
2013-09-13 14:09:00,67.3,56.9,29.67,NW,315,2.5,6.3,69,0.00,,,0.00,WUHU216HW,2013-09-13 18:09:00,
2013-09-13 14:14:00,67.1,57.2,29.68,NW,315,1.3,6.3,70,0.00,,,0.00,WUHU216HW,2013-09-13 18:14:00,
2013-09-13 14:19:00,67.1,57.2,29.67,NW,315,2.0,4.0,70,0.00,,,0.00,WUHU216HW,2013-09-13 18:19:00,
2013-09-13 14:24:00,67.1,57.2,29.66,NW,315,1.6,4.0,70,0.00,,,0.00,WUHU216HW,2013-09-13 18:24:00,
2013-09-13 14:30:00,67.5,57.5,29.66,NNW,338,2.0,5.1,70,0.00,,,0.00,WUHU216HW,2013-09-13 18:30:00,
2013-09-13 14:35:00,67.8,57.8,29.66,WNW,293,4.9,5.1,70,0.00,,,0.00,WUHU216HW,2013-09-13 18:35:00,
2013-09-13 14:40:00,68.2,58.2,29.66,WSW,248,3.4,8.9,70,0.00,,,0.00,WUHU216HW,2013-09-13 18:40:00,
2013-09-13 14:45:00,68.9,57.3,29.66,NW,315,6.9,8.9,66,0.00,,,0.00,WUHU216HW,2013-09-13 18:45:00,
2013-09-13 14:50:00,69.1,57.4,29.67,SSE,158,2.7,10.7,66,0.00,,,0.00,WUHU216HW,2013-09-13 18:50:00,
2013-09-13 14:55:00,69.1,56.2,29.67,West,270,4.7,10.7,63,0.00,,,0.00,WUHU216HW,2013-09-13 18:55:00,
2013-09-13 15:00:00,68.6,55.7,29.67,West,270,3.6,7.6,63,0.00,,,0.00,WUHU216HW,2013-09-13 19:00:00,
2013-09-13 15:05:00,68.6,56.1,29.67,SSW,203,4.9,7.6,64,0.00,,,0.00,WUHU216HW,2013-09-13 19:05:00,
2013-09-13 15:10:00,69.1,56.6,29.67,ENE,68,2.9,6.7,64,0.00,,,0.00,WUHU216HW,2013-09-13 19:10:00,
2013-09-13 15:15:00,68.9,56.0,29.67,South,180,7.4,8.9,63,0.00,,,0.00,WUHU216HW,2013-09-13 19:15:00,
2013-09-13 15:20:00,68.6,55.7,29.67,SSE,158,8.1,8.9,63,0.00,,,0.00,WUHU216HW,2013-09-13 19:20:00,
2013-09-13 15:25:00,68.6,55.2,29.68,WSW,248,6.5,12.8,62,0.00,,,0.00,WUHU216HW,2013-09-13 19:25:00,
2013-09-13 15:31:00,68.4,55.1,29.68,SW,225,3.8,12.8,62,0.00,,,0.00,WUHU216HW,2013-09-13 19:31:00,
2013-09-13 15:36:00,68.2,55.3,29.68,SSE,158,4.0,8.3,63,0.00,,,0.00,WUHU216HW,2013-09-13 19:36:00,
2013-09-13 15:41:00,68.2,55.3,29.68,South,180,3.8,6.3,63,0.00,,,0.00,WUHU216HW,2013-09-13 19:41:00,
2013-09-13 15:46:00,68.2,54.9,29.68,ESE,113,6.3,6.3,62,0.00,,,0.00,WUHU216HW,2013-09-13 19:46:00,
2013-09-13 15:51:00,68.2,55.3,29.68,NW,315,2.5,6.3,63,0.00,,,0.00,WUHU216HW,2013-09-13 19:51:00,
2013-09-13 15:56:00,68.0,55.1,29.68,West,270,2.5,3.4,63,0.00,,,0.00,WUHU216HW,2013-09-13 19:56:00,
2013-09-13 16:01:00,67.8,54.9,29.68,WSW,248,4.0,4.5,63,0.00,,,0.00,WUHU216HW,2013-09-13 20:01:00,
2013-09-13 16:06:00,68.0,55.1,29.69,SW,225,3.8,4.7,63,0.00,,,0.00,WUHU216HW,2013-09-13 20:06:00,
2013-09-13 16:11:00,68.2,54.9,29.69,NW,315,2.5,5.1,62,0.00,,,0.00,WUHU216HW,2013-09-13 20:11:00,
2013-09-13 16:16:00,68.2,54.9,29.69,WSW,248,3.6,5.1,62,0.00,,,0.00,WUHU216HW,2013-09-13 20:16:00,
2013-09-13 16:21:00,68.4,54.6,29.70,ESE,113,1.8,4.0,61,0.00,,,0.00,WUHU216HW,2013-09-13 20:21:00,
2013-09-13 16:26:00,68.6,55.2,29.70,WSW,248,2.9,4.0,62,0.00,,,0.00,WUHU216HW,2013-09-13 20:26:00,
2013-09-13 16:32:00,68.6,55.2,29.70,WNW,293,4.7,8.1,62,0.00,,,0.00,WUHU216HW,2013-09-13 20:32:00,
2013-09-13 16:37:00,68.2,54.9,29.71,WNW,293,1.3,8.1,62,0.00,,,0.00,WUHU216HW,2013-09-13 20:37:00,
2013-09-13 16:42:00,68.4,55.1,29.71,SW,225,3.1,7.4,62,0.00,,,0.00,WUHU216HW,2013-09-13 20:42:00,
2013-09-13 16:47:00,68.6,55.7,29.71,SW,225,5.4,5.4,63,0.00,,,0.00,WUHU216HW,2013-09-13 20:47:00,
2013-09-13 16:52:00,68.4,55.5,29.71,WNW,293,3.4,5.4,63,0.00,,,0.00,WUHU216HW,2013-09-13 20:52:00,
2013-09-13 16:57:00,68.7,55.8,29.71,NNE,23,6.0,6.0,63,0.00,,,0.00,WUHU216HW,2013-09-13 20:57:00,
2013-09-13 17:02:00,69.1,55.3,29.72,NNE,23,2.0,6.0,61,0.00,,,0.00,WUHU216HW,2013-09-13 21:02:00,
2013-09-13 17:07:00,68.9,55.1,29.71,SW,225,1.1,3.4,61,0.00,,,0.00,WUHU216HW,2013-09-13 21:07:00,
2013-09-13 17:12:00,68.9,54.6,29.72,WNW,293,0.7,3.4,60,0.00,,,0.00,WUHU216HW,2013-09-13 21:12:00,
2013-09-13 17:17:00,68.6,54.8,29.72,West,270,2.2,3.4,61,0.00,,,0.00,WUHU216HW,2013-09-13 21:17:00,
2013-09-13 17:22:00,68.4,55.1,29.72,WNW,293,1.1,2.5,62,0.00,,,0.00,WUHU216HW,2013-09-13 21:22:00,
2013-09-13 17:28:00,68.7,54.9,29.72,West,270,4.0,5.4,61,0.00,,,0.00,WUHU216HW,2013-09-13 21:28:00,
2013-09-13 17:33:00,68.4,54.6,29.72,WSW,248,3.1,5.4,61,0.00,,,0.00,WUHU216HW,2013-09-13 21:33:00,
2013-09-13 17:38:00,67.3,54.0,29.72,NW,315,1.8,3.6,62,0.00,,,0.00,WUHU216HW,2013-09-13 21:38:00,
2013-09-13 17:43:00,66.8,53.5,29.72,NW,315,3.6,3.6,62,0.00,,,0.00,WUHU216HW,2013-09-13 21:43:00,
2013-09-13 17:48:00,66.2,53.4,29.73,West,270,2.9,3.6,63,0.00,,,0.00,WUHU216HW,2013-09-13 21:48:00,
2013-09-13 17:53:00,65.9,53.1,29.72,NW,315,3.6,4.7,63,0.00,,,0.00,WUHU216HW,2013-09-13 21:53:00,
2013-09-13 17:58:00,65.3,52.5,29.72,WNW,293,1.8,4.7,63,0.00,,,0.00,WUHU216HW,2013-09-13 21:58:00,
2013-09-13 18:03:00,65.0,52.7,29.72,West,270,2.9,4.3,64,0.00,,,0.00,WUHU216HW,2013-09-13 22:03:00,
2013-09-13 18:08:00,64.6,52.7,29.72,WSW,248,6.3,6.3,65,0.00,,,0.00,WUHU216HW,2013-09-13 22:08:00,
2013-09-13 18:13:00,64.4,52.5,29.72,NNW,338,1.6,6.3,65,0.00,,,0.00,WUHU216HW,2013-09-13 22:13:00,
2013-09-13 18:18:00,64.2,52.4,29.72,NNW,338,1.6,6.3,65,0.00,,,0.00,WUHU216HW,2013-09-13 22:18:00,
2013-09-13 18:24:00,63.9,52.1,29.72,WNW,293,0.9,4.7,65,0.00,,,0.00,WUHU216HW,2013-09-13 22:24:00,
2013-09-13 18:29:00,64.1,52.7,29.72,East,90,1.1,4.7,66,0.00,,,0.00,WUHU216HW,2013-09-13 22:29:00,
2013-09-13 18:34:00,64.6,53.1,29.72,WNW,293,0.9,3.1,66,0.00,,,0.00,WUHU216HW,2013-09-13 22:34:00,
2013-09-13 18:39:00,64.4,53.0,29.72,WNW,293,0.4,3.8,66,0.00,,,0.00,WUHU216HW,2013-09-13 22:39:00,
2013-09-13 18:44:00,63.9,52.5,29.73,WSW,248,0.9,4.7,66,0.00,,,0.00,WUHU216HW,2013-09-13 22:44:00,
2013-09-13 18:49:00,63.3,52.3,29.73,West,270,1.3,4.7,67,0.00,,,0.00,WUHU216HW,2013-09-13 22:49:00,
2013-09-13 18:54:00,63.0,52.0,29.73,NNW,338,1.1,4.3,67,0.00,,,0.00,WUHU216HW,2013-09-13 22:54:00,
2013-09-13 18:59:00,62.4,51.9,29.74,SW,225,4.0,4.0,68,0.00,,,0.00,WUHU216HW,2013-09-13 22:59:00,
2013-09-13 19:04:00,62.1,51.6,29.74,NNW,338,3.1,5.4,68,0.00,,,0.00,WUHU216HW,2013-09-13 23:04:00,
2013-09-13 19:09:00,61.5,51.0,29.74,NW,315,2.5,5.4,68,0.00,,,0.00,WUHU216HW,2013-09-13 23:09:00,
2013-09-13 19:14:00,61.0,50.5,29.74,WNW,293,3.1,5.8,68,0.00,,,0.00,WUHU216HW,2013-09-13 23:14:00,
2013-09-13 19:19:00,60.8,50.7,29.74,West,270,1.8,5.8,69,0.00,,,0.00,WUHU216HW,2013-09-13 23:19:00,
2013-09-13 19:25:00,60.5,50.4,29.75,NNW,338,2.5,4.3,69,0.00,,,0.00,WUHU216HW,2013-09-13 23:25:00,
2013-09-13 19:30:00,60.1,50.4,29.75,NW,315,1.8,4.3,70,0.00,,,0.00,WUHU216HW,2013-09-13 23:30:00,
2013-09-13 19:35:00,59.9,49.8,29.76,SSW,203,2.0,3.8,69,0.00,,,0.00,WUHU216HW,2013-09-13 23:35:00,
2013-09-13 19:40:00,59.6,49.6,29.76,WNW,293,3.1,3.1,69,0.00,,,0.00,WUHU216HW,2013-09-13 23:40:00,
2013-09-13 19:45:00,59.4,49.7,29.77,West,270,1.3,3.6,70,0.00,,,0.00,WUHU216HW,2013-09-13 23:45:00,
2013-09-13 19:50:00,59.2,49.6,29.77,West,270,2.5,3.6,70,0.00,,,0.00,WUHU216HW,2013-09-13 23:50:00,
2013-09-13 19:55:00,58.8,49.5,29.78,NW,315,3.8,4.7,71,0.00,,,0.00,WUHU216HW,2013-09-13 23:55:00,
2013-09-13 20:00:00,58.5,49.3,29.78,West,270,1.8,4.7,71,0.00,,,0.00,WUHU216HW,2013-09-14 00:00:00,
2013-09-13 20:05:00,58.3,49.1,29.79,WNW,293,4.0,5.1,71,0.00,,,0.00,WUHU216HW,2013-09-14 00:05:00,
2013-09-13 20:10:00,58.1,48.9,29.79,NNW,338,3.4,6.3,71,0.00,,,0.00,WUHU216HW,2013-09-14 00:10:00,
2013-09-13 20:15:00,57.9,48.7,29.79,WSW,248,1.8,6.3,71,0.00,,,0.00,WUHU216HW,2013-09-14 00:15:00,
2013-09-13 20:20:00,57.8,48.6,29.79,West,270,2.0,4.7,71,0.00,,,0.00,WUHU216HW,2013-09-14 00:20:00,
2013-09-13 20:26:00,57.4,48.6,29.80,NW,315,2.2,2.7,72,0.00,,,0.00,WUHU216HW,2013-09-14 00:26:00,
2013-09-13 20:31:00,57.2,48.4,29.80,WSW,248,1.8,2.7,72,0.00,,,0.00,WUHU216HW,2013-09-14 00:31:00,
2013-09-13 20:36:00,57.0,48.2,29.81,NW,315,3.4,3.4,72,0.00,,,0.00,WUHU216HW,2013-09-14 00:36:00,
2013-09-13 20:41:00,56.9,48.1,29.81,NNW,338,0.9,3.4,72,0.00,,,0.00,WUHU216HW,2013-09-14 00:41:00,
2013-09-13 20:46:00,56.7,48.2,29.81,SW,225,0.9,4.3,73,0.00,,,0.00,WUHU216HW,2013-09-14 00:46:00,
2013-09-13 20:51:00,56.3,47.9,29.81,SSW,203,3.4,4.3,73,0.00,,,0.00,WUHU216HW,2013-09-14 00:51:00,
2013-09-13 20:56:00,56.3,47.9,29.81,NW,315,2.0,4.0,73,0.00,,,0.00,WUHU216HW,2013-09-14 00:56:00,
2013-09-13 21:01:00,56.0,47.6,29.81,WSW,248,2.5,4.9,73,0.00,,,0.00,WUHU216HW,2013-09-14 01:01:00,
2013-09-13 21:06:00,56.0,47.6,29.81,NW,315,2.2,4.9,73,0.00,,,0.00,WUHU216HW,2013-09-14 01:06:00,
2013-09-13 21:11:00,55.8,47.4,29.81,NNW,338,2.5,4.7,73,0.00,,,0.00,WUHU216HW,2013-09-14 01:11:00,
2013-09-13 21:16:00,55.6,47.2,29.82,NW,315,2.0,4.7,73,0.00,,,0.00,WUHU216HW,2013-09-14 01:16:00,
2013-09-13 21:22:00,55.4,47.0,29.81,NNW,338,1.1,3.6,73,0.00,,,0.00,WUHU216HW,2013-09-14 01:22:00,
2013-09-13 21:27:00,55.2,47.2,29.81,West,270,2.2,3.6,74,0.00,,,0.00,WUHU216HW,2013-09-14 01:27:00,
2013-09-13 21:32:00,55.2,47.2,29.82,West,270,2.0,4.0,74,0.00,,,0.00,WUHU216HW,2013-09-14 01:32:00,
2013-09-13 21:37:00,54.9,46.9,29.82,WNW,293,1.3,4.0,74,0.00,,,0.00,WUHU216HW,2013-09-14 01:37:00,
2013-09-13 21:42:00,54.9,46.9,29.82,NNE,23,1.1,2.5,74,0.00,,,0.00,WUHU216HW,2013-09-14 01:42:00,
2013-09-13 21:47:00,54.7,47.0,29.82,NW,315,1.8,2.9,75,0.00,,,0.00,WUHU216HW,2013-09-14 01:47:00,
2013-09-13 21:52:00,54.5,46.8,29.82,NW,315,1.1,2.9,75,0.00,,,0.00,WUHU216HW,2013-09-14 01:52:00,
2013-09-13 21:57:00,54.5,47.2,29.82,South,180,1.1,5.6,76,0.00,,,0.00,WUHU216HW,2013-09-14 01:57:00,
2013-09-13 22:02:00,54.3,47.0,29.82,NE,45,2.0,5.6,76,0.00,,,0.00,WUHU216HW,2013-09-14 02:02:00,
2013-09-13 22:07:00,54.3,47.0,29.82,WNW,293,1.8,3.4,76,0.00,,,0.00,WUHU216HW,2013-09-14 02:07:00,
2013-09-13 22:12:00,54.2,46.9,29.83,WNW,293,1.3,3.4,76,0.00,,,0.00,WUHU216HW,2013-09-14 02:12:00,
2013-09-13 22:17:00,54.2,46.9,29.83,NW,315,1.1,2.0,76,0.00,,,0.00,WUHU216HW,2013-09-14 02:17:00,
2013-09-13 22:22:00,54.2,46.9,29.83,West,270,0.4,2.5,76,0.00,,,0.00,WUHU216HW,2013-09-14 02:22:00,
2013-09-13 22:28:00,54.0,46.7,29.83,West,270,1.6,2.5,76,0.00,,,0.00,WUHU216HW,2013-09-14 02:28:00,
2013-09-13 22:33:00,54.0,46.7,29.82,South,180,0.2,2.9,76,0.00,,,0.00,WUHU216HW,2013-09-14 02:33:00,
2013-09-13 22:38:00,54.0,46.7,29.82,NNE,23,1.3,4.9,76,0.00,,,0.00,WUHU216HW,2013-09-14 02:38:00,
2013-09-13 22:43:00,53.8,46.5,29.82,South,180,5.1,5.1,76,0.00,,,0.00,WUHU216HW,2013-09-14 02:43:00,
2013-09-13 22:48:00,53.6,46.3,29.82,North,0,0.9,5.1,76,0.00,,,0.00,WUHU216HW,2013-09-14 02:48:00,
2013-09-13 22:53:00,53.6,46.3,29.83,WNW,293,2.5,4.7,76,0.00,,,0.00,WUHU216HW,2013-09-14 02:53:00,
2013-09-13 22:58:00,53.4,46.4,29.83,South,180,0.4,4.7,77,0.00,,,0.00,WUHU216HW,2013-09-14 02:58:00,
2013-09-13 23:03:00,53.3,46.3,29.83,West,270,1.1,2.9,77,0.00,,,0.00,WUHU216HW,2013-09-14 03:03:00,
2013-09-13 23:08:00,53.1,46.1,29.83,West,270,2.0,6.9,77,0.00,,,0.00,WUHU216HW,2013-09-14 03:08:00,
2013-09-13 23:13:00,53.1,46.1,29.83,West,270,0.4,6.9,77,0.00,,,0.00,WUHU216HW,2013-09-14 03:13:00,
2013-09-13 23:18:00,52.9,46.0,29.83,NW,315,2.0,3.4,77,0.00,,,0.00,WUHU216HW,2013-09-14 03:18:00,
2013-09-13 23:23:00,52.7,45.8,29.83,WNW,293,1.1,4.0,77,0.00,,,0.00,WUHU216HW,2013-09-14 03:23:00,
2013-09-13 23:29:00,52.7,45.8,29.83,West,270,0.0,4.0,77,0.00,,,0.00,WUHU216HW,2013-09-14 03:29:00,
2013-09-13 23:34:00,52.7,45.8,29.83,WNW,293,0.4,3.4,77,0.00,,,0.00,WUHU216HW,2013-09-14 03:34:00,
2013-09-13 23:39:00,52.7,45.8,29.83,WNW,293,2.2,2.2,77,0.00,,,0.00,WUHU216HW,2013-09-14 03:39:00,
2013-09-13 23:44:00,52.5,45.6,29.83,West,270,3.4,6.5,77,0.00,,,0.00,WUHU216HW,2013-09-14 03:44:00,
2013-09-13 23:49:00,52.4,45.1,29.83,WNW,293,1.1,6.5,76,0.00,,,0.00,WUHU216HW,2013-09-14 03:49:00,
2013-09-13 23:54:00,52.2,45.3,29.83,WNW,293,1.6,2.7,77,0.00,,,0.00,WUHU216HW,2013-09-14 03:54:00,
2013-09-13 23:59:00,52.0,45.1,29.84,NNW,338,0.2,2.5,77,0.00,,,0.00,WUHU216HW,2013-09-14 03:59:00,